This demonstration page uses our WeatherBlox Daily Observations layout. Learn more.

Left ArrowRight Arrow

Hourly Observations for July 25, 2016

Temp ( °F °C ) Dew Point ( °F °C ) Humidity (%) Winds ( mph kmh ) Pressure ( in mb ) Visibility ( mi km ) Precip ( " mm )
12:15 am 00:15 Clear 70 20.9 64 17.7 82 82 ENE 6 9 30.00 1016 10 16 N/A
12:35 am 00:35 Clear 69 20.5 64 17.7 84 84 E 3 6 30.03 1017 10 16 N/A
12:55 am 00:55 Clear 71 21.5 63 17.1 76 76 ENE 3 6 30.00 1016 10 16 N/A
1:15 am 01:15 Clear 69 20.5 64 17.5 83 83 NE 3 6 30.03 1017 10 16 N/A
1:35 am 01:35 Clear 67 19.5 64 17.5 88 88 N 3 6 30.03 1017 10 16 N/A
1:55 am 01:55 Clear 67 19.5 63 17.1 86 86 N N/A 30.03 1017 10 16 N/A
2:15 am 02:15 Clear 67 19.2 63 17.1 88 88 N N/A 30.03 1017 10 16 N/A
2:35 am 02:35 Clear 66 18.8 63 17.1 90 90 N N/A 30.03 1017 10 16 N/A
2:55 am 02:55 Clear 65 18.6 63 17 90 90 N N/A 30.03 1017 10 16 N/A
3:15 am 03:15 Clear 66 18.8 63 17 89 89 N N/A 30.03 1017 10 16 N/A
3:35 am 03:35 Clear 65 18.3 63 17 92 92 N N/A 30.03 1017 10 16 N/A
3:55 am 03:55 Clear 65 18.2 62 16.6 90 90 E 3 6 30.03 1017 10 16 N/A
4:15 am 04:15 Clear 65 18.3 62 16.5 89 89 E 3 6 30.03 1017 10 16 N/A
4:35 am 04:35 Clear 66 19 62 16.6 86 86 ESE 5 7 30.03 1017 10 16 N/A
4:55 am 04:55 Clear 66 18.8 62 16.4 86 86 N N/A 30.06 1018 10 16 N/A
5:15 am 05:15 Clear 64 17.6 61 16.2 92 92 N N/A 30.09 1019 7 11 N/A
5:35 am 05:35 Clear 63 17.3 61 16.1 93 93 N N/A 30.09 1019 7 11 N/A
5:55 am 05:55 Clear 63 17 61 16 94 94 NNW 3 6 30.09 1019 7 11 N/A
6:15 am 06:15 Clear 62 16.7 60 15.7 94 94 N N/A 30.09 1019 7 11 N/A
6:35 am 06:35 Sunny with Mist and Fog 62 16.5 60 15.5 94 94 N N/A 30.12 1020 5 8 N/A
6:55 am 06:55 Sunny with Mist and Fog 62 16.5 60 15.5 94 94 N N/A 30.12 1020 5 8 N/A
7:15 am 07:15 Sunny with Mist and Fog 62 16.7 60 15.7 94 94 N N/A 30.12 1020 5 8 N/A
7:35 am 07:35 Sunny with Mist and Fog 63 17.3 61 16.3 94 94 N N/A 30.12 1020 5 8 N/A
7:55 am 07:55 Sunny 64 18 62 16.8 93 93 N N/A 30.09 1019 10 16 N/A
8:15 am 08:15 Sunny 66 19 63 17 88 88 E 6 9 30.09 1019 10 16 N/A
8:35 am 08:35 Sunny 67 19.5 62 16.9 85 85 E 5 7 30.09 1019 10 16 N/A
8:55 am 08:55 Sunny 70 21.2 63 17.2 78 78 E 6 9 30.09 1019 10 16 N/A
9:15 am 09:15 Sunny 71 21.4 62 16.8 75 75 ESE 9 15 30.06 1018 10 16 N/A
9:35 am 09:35 Partly Cloudy 73 22.7 63 17.4 72 72 ESE 8 13 30.06 1018 10 16 N/A
9:55 am 09:55 Sunny 74 23.1 62 16.8 68 68 ESE 15 24 30.06 1018 10 16 N/A
10:15 am 10:15 Sunny 75 23.9 63 17.1 66 66 ESE 14 22 30.06 1018 10 16 N/A
10:35 am 10:35 Sunny 77 24.8 64 17.5 64 64 E 12 19 30.06 1018 10 16 N/A
10:55 am 10:55 Sunny 77 25 64 17.5 63 63 ESE 14 22 30.03 1017 10 16 N/A
11:15 am 11:15 Sunny 78 25.7 65 18.2 63 63 ESE 9 15 30.03 1017 10 16 N/A
11:35 am 11:35 Sunny 78 25.8 63 17 58 58 SE 13 20 30.03 1017 10 16 N/A
11:55 am 11:55 Sunny 79 26.2 63 17.3 58 58 SE 12 19 30.03 1017 10 16 N/A
12:15 pm 12:15 Sunny 80 26.5 64 17.9 59 59 SE 12 19 30.03 1017 10 16 N/A
12:35 pm 12:35 Sunny 80 26.7 63 17.1 56 56 SE 9 15 30.03 1017 10 16 N/A
12:55 pm 12:55 Sunny 81 27 63 17 54 54 SE 10 17 30.03 1017 10 16 N/A
1:15 pm 13:15 Sunny 82 27.8 64 17.8 55 55 ESE 10 17 30.00 1016 10 16 N/A
1:35 pm 13:35 Sunny 81 27.4 63 17.1 53 53 SSE 8 13 30.00 1016 10 16 N/A
1:55 pm 13:55 Sunny 82 27.8 64 17.5 54 54 ESE 12 19 30.00 1016 10 16 N/A
2:15 pm 14:15 Sunny 83 28.1 64 17.8 54 54 SE 8 13 30.00 1016 10 16 N/A
2:35 pm 14:35 Sunny 83 28.3 64 17.6 52 52 SSE 8 13 29.94 1014 10 16 N/A
2:55 pm 14:55 Sunny 83 28.5 63 17.3 51 51 SSE 12 19 29.94 1014 10 16 N/A
3:15 pm 15:15 Sunny 84 29 65 18.5 53 53 SSE 10 17 29.94 1014 10 16 N/A
3:35 pm 15:35 Sunny 84 29 65 18.4 53 53 SE 13 20 29.94 1014 10 16 N/A
3:55 pm 15:55 Sunny 85 29.2 66 18.9 54 54 SE 12 19 29.94 1014 10 16 N/A
4:15 pm 16:15 Sunny 85 29.4 64 18 50 50 SSE 9 15 29.91 1013 10 16 N/A
4:35 pm 16:35 Sunny 85 29.3 62 16.5 46 46 SE 13 20 29.91 1013 10 16 N/A
4:55 pm 16:55 Sunny 85 29.5 66 18.8 53 53 SE 10 17 29.91 1013 10 16 N/A
5:15 pm 17:15 Sunny 85 29.5 66 18.9 53 53 SE 10 17 29.91 1013 10 16 N/A
5:35 pm 17:35 Partly Cloudy 85 29.6 67 19.3 54 54 SE 13 20 29.88 1012 10 16 N/A
5:55 pm 17:55 Sunny 85 29.4 67 19.3 55 55 SE 10 17 29.88 1012 10 16 N/A
6:15 pm 18:15 Partly Cloudy 85 29.5 67 19.7 56 56 SSE 10 17 29.88 1012 10 16 N/A
6:35 pm 18:35 Partly Cloudy 85 29.2 66 18.8 53 53 SE 9 15 29.88 1012 10 16 N/A
6:55 pm 18:55 Sunny 84 29.1 67 19.2 55 55 SSE 10 17 29.88 1012 10 16 N/A
7:15 pm 19:15 Sunny 83 28.5 67 19.6 59 59 SSE 9 15 29.88 1012 10 16 N/A
7:35 pm 19:35 Sunny 83 28.5 67 19.4 58 58 SSE 9 15 29.88 1012 10 16 N/A
7:55 pm 19:55 Sunny 82 27.9 66 19 58 58 SSE 9 15 29.88 1012 10 16 N/A
8:15 pm 20:15 Sunny 81 27.2 67 19.4 62 62 SE 7 11 29.94 1014 10 16 N/A
8:35 pm 20:35 Sunny 80 26.5 67 19.5 65 65 SSE 6 9 29.94 1014 10 16 N/A
8:55 pm 20:55 Sunny 78 25.5 67 19.7 70 70 SE 7 11 29.94 1014 10 16 N/A
9:15 pm 21:15 Clear 78 25.5 67 19.5 70 70 SE 6 9 29.94 1014 10 16 N/A
9:35 pm 21:35 Clear 76 24.3 67 19.7 76 76 S 5 7 29.94 1014 10 16 N/A
9:55 pm 21:55 Clear 75 24 68 19.8 77 77 SE 3 6 30.00 1016 10 16 N/A
10:15 pm 22:15 Clear 75 23.8 68 19.8 78 78 SE 5 7 30.00 1016 10 16 N/A
10:35 pm 22:35 Clear 76 24.4 67 19.3 73 73 ESE 8 13 29.97 1015 10 16 N/A
10:55 pm 22:55 Clear 75 23.7 65 18.5 73 73 SE 8 13 30.00 1016 10 16 N/A
11:15 pm 23:15 Clear 74 23.2 65 18.1 73 73 ESE 9 15 30.00 1016 10 16 N/A
11:35 pm 23:35 Clear 73 22.5 65 18.2 77 77 SE 7 11 30.03 1017 10 16 N/A
11:55 pm 23:55 Clear 72 22 65 18.3 80 80 SE 8 13 30.03 1017 10 16 N/A

Powered by AerisWeather